Time,TemperatureF,DewpointF,PressureIn,WindDirection,WindDirectionDegrees,WindSpeedMPH,WindSpeedGustMPH,Humidity,HourlyPrecipIn,Conditions,Clouds,dailyrainin,SolarRadiationWatts/m^2,SoftwareType,DateUTC
2014-08-30 00:23:00,71.0,70.0,-100.00,North,-999,0.0,5.0,96,0.01,,,0.38,0.000000,,2014-08-30 05:23:00,
2014-08-30 00:34:00,71.0,70.0,-100.00,North,-999,0.0,5.0,96,0.01,,,0.38,0.000000,,2014-08-30 05:34:00,
2014-08-30 00:43:00,71.0,70.0,-100.00,North,-999,0.0,5.0,96,0.01,,,0.38,0.000000,,2014-08-30 05:43:00,
2014-08-30 01:22:00,71.0,70.0,-100.00,SSE,151,3.0,4.0,97,0.00,,,-99.99,0.000000,,2014-08-30 06:22:00,
2014-08-30 02:22:00,71.0,70.0,-100.00,SSE,159,1.0,3.0,97,0.00,,,0.38,0.000000,,2014-08-30 07:22:00,
2014-08-30 02:33:00,71.0,70.0,-100.00,SSE,159,1.0,3.0,97,0.00,,,0.38,0.000000,,2014-08-30 07:33:00,
2014-08-30 02:52:00,71.0,70.0,-100.00,SSE,159,1.0,3.0,97,0.00,,,0.38,0.000000,,2014-08-30 07:52:00,
2014-08-30 02:53:00,71.0,70.0,-100.00,SSE,168,3.0,4.0,97,0.00,,,0.38,0.000000,,2014-08-30 07:53:00,
2014-08-30 03:22:00,71.0,70.0,-100.00,SSE,168,3.0,4.0,97,0.00,,,0.38,0.000000,,2014-08-30 08:22:00,
2014-08-30 03:33:00,71.0,70.0,-100.00,SSE,168,3.0,4.0,97,0.00,,,0.38,0.000000,,2014-08-30 08:33:00,
2014-08-30 03:42:00,71.0,70.0,-100.00,SSE,168,3.0,4.0,97,0.00,,,0.38,0.000000,,2014-08-30 08:42:00,
2014-08-30 03:53:00,71.0,70.0,-100.00,SE,131,4.0,6.0,97,0.00,,,0.38,0.000000,,2014-08-30 08:53:00,
2014-08-30 04:23:00,71.0,70.0,-100.00,SE,131,4.0,6.0,97,0.00,,,0.38,0.000000,,2014-08-30 09:23:00,
2014-08-30 04:33:00,71.0,70.0,-100.00,SE,131,4.0,6.0,97,0.00,,,0.38,0.000000,,2014-08-30 09:33:00,
2014-08-30 04:44:00,71.0,70.0,-100.00,SE,131,4.0,6.0,97,0.00,,,0.38,0.000000,,2014-08-30 09:44:00,
2014-08-30 04:53:00,71.0,70.0,-100.00,SSE,168,3.0,6.0,97,0.00,,,0.38,0.000000,,2014-08-30 09:53:00,
2014-08-30 05:33:00,71.0,70.0,-100.00,SSE,168,3.0,6.0,97,0.00,,,0.38,0.000000,,2014-08-30 10:33:00,
2014-08-30 06:22:00,71.0,70.0,-100.00,SSW,193,4.0,9.0,96,0.01,,,0.39,0.000000,,2014-08-30 11:22:00,
2014-08-30 06:43:00,71.0,70.0,-100.00,SSW,193,4.0,9.0,96,0.01,,,0.39,0.000000,,2014-08-30 11:43:00,
2014-08-30 06:52:00,71.0,70.0,-100.00,SSW,193,4.0,9.0,96,0.01,,,0.39,0.000000,,2014-08-30 11:52:00,
2014-08-30 07:32:00,71.0,70.0,-100.00,SE,128,1.0,6.0,96,0.00,,,0.39,1.000000,,2014-08-30 12:32:00,
2014-08-30 07:43:00,71.0,70.0,-100.00,SE,128,1.0,6.0,96,0.00,,,0.39,1.000000,,2014-08-30 12:43:00,
2014-08-30 07:52:00,71.0,70.0,-100.00,SE,128,1.0,6.0,96,0.00,,,0.39,1.000000,,2014-08-30 12:52:00,
2014-08-30 07:53:00,72.0,70.0,-100.00,SSE,159,2.0,4.0,94,0.00,,,0.39,46.000000,,2014-08-30 12:53:00,
2014-08-30 08:22:00,72.0,70.0,-100.00,SSE,159,2.0,4.0,94,0.00,,,0.39,46.000000,,2014-08-30 13:22:00,
2014-08-30 08:33:00,72.0,70.0,-100.00,SSE,159,2.0,4.0,94,0.00,,,0.39,46.000000,,2014-08-30 13:33:00,
2014-08-30 09:33:00,74.0,71.0,-100.00,SW,226,3.0,4.0,89,0.00,,,0.39,163.000000,,2014-08-30 14:33:00,
2014-08-30 09:43:00,74.0,71.0,-100.00,SW,226,3.0,4.0,89,0.00,,,0.39,163.000000,,2014-08-30 14:43:00,
2014-08-30 09:53:00,76.0,72.0,-100.00,SW,219,5.0,9.0,87,0.00,,,0.39,254.000000,,2014-08-30 14:53:00,
2014-08-30 10:22:00,76.0,72.0,-100.00,SW,219,5.0,9.0,87,0.00,,,0.39,254.000000,,2014-08-30 15:22:00,
2014-08-30 10:44:00,76.0,72.0,-100.00,SW,219,5.0,9.0,87,0.00,,,0.39,254.000000,,2014-08-30 15:44:00,
2014-08-30 10:53:00,77.0,71.0,-100.00,SSW,195,7.0,12.0,83,0.00,,,0.39,352.000000,,2014-08-30 15:53:00,
2014-08-30 11:24:00,77.0,71.0,-100.00,SSW,195,7.0,12.0,83,0.00,,,0.39,352.000000,,2014-08-30 16:24:00,
2014-08-30 11:34:00,77.0,71.0,-100.00,SSW,195,7.0,12.0,83,0.00,,,0.39,352.000000,,2014-08-30 16:34:00,
2014-08-30 11:43:00,77.0,71.0,-100.00,SSW,195,7.0,12.0,83,0.00,,,0.39,352.000000,,2014-08-30 16:43:00,
2014-08-30 12:24:00,79.0,71.0,-100.00,WSW,256,7.0,13.0,76,0.00,,,0.39,438.000000,,2014-08-30 17:24:00,
2014-08-30 13:22:00,81.0,71.0,-100.00,South,177,6.0,13.0,71,0.00,,,0.39,513.000000,,2014-08-30 18:22:00,
2014-08-30 13:34:00,81.0,71.0,-100.00,South,177,6.0,13.0,71,0.00,,,0.39,513.000000,,2014-08-30 18:34:00,
2014-08-30 13:52:00,81.0,71.0,-100.00,South,177,6.0,13.0,71,0.00,,,0.39,513.000000,,2014-08-30 18:52:00,
2014-08-30 14:23:00,82.0,71.0,-100.00,SW,224,8.0,13.0,70,0.00,,,0.39,549.000000,,2014-08-30 19:23:00,
2014-08-30 14:32:00,82.0,71.0,-100.00,SW,224,8.0,13.0,70,0.00,,,0.39,549.000000,,2014-08-30 19:32:00,
2014-08-30 14:43:00,82.0,71.0,-100.00,SW,224,8.0,13.0,70,0.00,,,0.39,549.000000,,2014-08-30 19:43:00,
2014-08-30 14:52:00,82.0,71.0,-100.00,SW,224,8.0,13.0,70,0.00,,,0.39,549.000000,,2014-08-30 19:52:00,
2014-08-30 15:23:00,83.0,71.0,-100.00,SE,142,8.0,16.0,68,0.00,,,0.12,620.000000,,2014-08-30 20:23:00,
2014-08-30 15:42:00,83.0,71.0,-100.00,SE,142,8.0,16.0,68,0.00,,,0.12,620.000000,,2014-08-30 20:42:00,
2014-08-30 15:52:00,83.0,71.0,-100.00,SE,142,8.0,16.0,68,0.00,,,0.12,620.000000,,2014-08-30 20:52:00,
2014-08-30 16:22:00,82.0,70.0,-100.00,South,174,8.0,15.0,68,0.00,,,0.12,428.000000,,2014-08-30 21:22:00,
2014-08-30 16:34:00,82.0,70.0,-100.00,South,174,8.0,15.0,68,0.00,,,0.12,428.000000,,2014-08-30 21:34:00,
2014-08-30 16:53:00,77.0,74.0,-100.00,SE,146,5.0,15.0,89,0.16,,,0.28,179.000000,,2014-08-30 21:53:00,
2014-08-30 17:23:00,77.0,74.0,-100.00,SE,146,5.0,15.0,89,0.16,,,0.28,179.000000,,2014-08-30 22:23:00,
2014-08-30 17:33:00,77.0,74.0,-100.00,SE,146,5.0,15.0,89,0.16,,,0.28,179.000000,,2014-08-30 22:33:00,
2014-08-30 17:43:00,77.0,74.0,-100.00,SE,146,5.0,15.0,89,0.16,,,0.28,179.000000,,2014-08-30 22:43:00,
2014-08-30 18:23:00,78.0,72.0,-100.00,SSE,153,6.0,15.0,82,0.00,,,0.28,217.000000,,2014-08-30 23:23:00,
2014-08-30 18:33:00,78.0,72.0,-100.00,SSE,153,6.0,15.0,82,0.00,,,0.28,217.000000,,2014-08-30 23:33:00,